Change the Weather History Date:

Thursday, October 18, 2012

  Actual Average Record
Temperature  
Mean Temperature 49 °F -  
Max Temperature 53 °F 59 °F 77 °F (2007)
Min Temperature 44 °F 42 °F 30 °F (2009)
Degree Days  
Heating Degree Days 16 15  
Month to date heating degree days 248 224  
Since 1 July heating degree days 428 390  
Cooling Degree Days 0 0  
Month to date cooling degree days 0 7  
Year to date cooling degree days 981 564  
Moisture  
Dew Point 42 °F    
Average Humidity 76    
Maximum Humidity 96    
Minimum Humidity 56    
Precipitation  
Precipitation 0.07 in 0.08 in 0.23 in (2006)
Month to date precipitation 1.90 1.71  
Year to date precipitation 21.78 29.62  
Sea Level Pressure  
Sea Level Pressure 29.40 in    
Wind  
Wind Speed 15 mph (SSW)    
Max Wind Speed 30 mph    
Max Gust Speed 39 mph    
Visibility 10 miles    
Events Rain    
T = Trace of Precipitation, MM = Missing Value Source: NWS Daily Summary

Daily Weather History Graph

Daily Weather History Graph

Search for Another Location

Airport or City:

Trip Planner

Search our weather history database for the weather conditions in past years. The results will help you decide how hot, cold, wet, or windy it might be!

Date:

Astronomy

Oct. 18, 2012 Rise Set
Actual Time 7:08 AM CDT 6:03 PM CDT
Civil Twilight 6:39 AM CDT 6:32 PM CDT
Nautical Twilight 6:07 AM CDT 7:04 PM CDT
Astronomical Twilight 5:34 AM CDT 7:37 PM CDT
Moon 10:54 AM CDT (10/18) 8:33 PM CDT (10/18)
Length of Visible Light 11h 52m
Length of Day
10h 55m
Waxing Crescent, 14% of the Moon is Illuminated
Oct 18
Waxing Crescent
Oct 21
First Quarter
Oct 29
Full
Nov 6
Last Quarter
Nov 13
New

Hourly Weather History & Observations

Time (CDT) Temp. Windchill Dew Point Humidity Pressure Visibility Wind Dir Wind Speed Gust Speed Precip Events Conditions
12:04 AM 53.6 °F - 51.8 °F 94% 29.29 in 10.0 mi SW 5.8 mph - 0.01 in   Overcast
12:39 AM 53.6 °F - 50.0 °F 88% 29.30 in 10.0 mi SW 8.1 mph - 0.04 in   Overcast
12:52 AM 53.1 °F - 50.0 °F 89% 29.30 in 10.0 mi SW 10.4 mph - 0.05 in   Overcast
1:52 AM 52.0 °F - 50.0 °F 93% 29.29 in 10.0 mi SW 10.4 mph - 0.04 in   Overcast
2:52 AM 52.0 °F - 46.9 °F 83% 29.28 in 10.0 mi WSW 9.2 mph - 0.01 in   Overcast
3:52 AM 50.0 °F - 46.0 °F 86% 29.29 in 10.0 mi SW 12.7 mph 23.0 mph N/A   Scattered Clouds
3:59 AM 50.0 °F - 44.6 °F 82% 29.30 in 10.0 mi SW 8.1 mph 23.0 mph N/A   Mostly Cloudy
4:42 AM 48.2 °F - 44.6 °F 87% 29.30 in 10.0 mi Variable 4.6 mph - N/A   Partly Cloudy
4:52 AM 48.0 °F - 43.0 °F 83% 29.30 in 10.0 mi SW 8.1 mph - N/A   Partly Cloudy
5:52 AM 48.0 °F - 43.0 °F 83% 29.31 in 10.0 mi SW 15.0 mph 18.4 mph N/A   Mostly Cloudy
6:52 AM 48.0 °F - 43.0 °F 83% 29.31 in 10.0 mi SW 13.8 mph - N/A   Overcast
7:52 AM 46.9 °F - 39.9 °F 77% 29.33 in 10.0 mi SW 13.8 mph 24.2 mph N/A   Overcast
8:52 AM 48.0 °F - 39.9 °F 74% 29.35 in 10.0 mi SW 11.5 mph 24.2 mph N/A   Scattered Clouds
9:52 AM 48.9 °F - 39.9 °F 71% 29.36 in 10.0 mi SSW 18.4 mph 24.2 mph N/A   Overcast
10:52 AM 50.0 °F - 39.0 °F 66% 29.37 in 10.0 mi SSW 18.4 mph 25.3 mph N/A   Overcast
11:52 AM 50.0 °F - 37.0 °F 61% 29.39 in 10.0 mi SSW 19.6 mph 31.1 mph N/A   Overcast
12:52 PM 50.0 °F - 39.0 °F 66% 29.39 in 10.0 mi SSW 16.1 mph 20.7 mph 0.00 in   Overcast
1:52 PM 51.1 °F - 37.0 °F 59% 29.40 in 10.0 mi South 21.9 mph 28.8 mph N/A   Mostly Cloudy
2:52 PM 50.0 °F - 35.1 °F 57% 29.41 in 10.0 mi SSW 21.9 mph 39.1 mph N/A   Overcast
3:52 PM 46.0 °F 38.8 °F 41.0 °F 83% 29.45 in 10.0 mi SSW 18.4 mph - 0.00 in Rain Light Rain
4:25 PM 46.4 °F 39.5 °F 39.2 °F 76% 29.45 in 10.0 mi SSW 17.3 mph 28.8 mph 0.00 in Rain Light Rain
4:52 PM 46.0 °F 39.3 °F 39.9 °F 79% 29.47 in 10.0 mi South 16.1 mph - 0.00 in   Overcast
5:52 PM 45.0 °F 37.4 °F 41.0 °F 86% 29.49 in 10.0 mi South 18.4 mph 23.0 mph 0.01 in Rain Light Rain
6:52 PM 44.1 °F 36.5 °F 39.9 °F 85% 29.50 in 10.0 mi South 17.3 mph 24.2 mph 0.00 in Rain Light Rain
7:25 PM 44.6 °F 37.8 °F 39.2 °F 81% 29.49 in 10.0 mi South 15.0 mph - 0.00 in Rain Light Rain
7:52 PM 44.1 °F 37.1 °F 41.0 °F 89% 29.50 in 10.0 mi South 15.0 mph 19.6 mph 0.00 in Rain Light Rain
8:49 PM 44.6 °F 38.4 °F 41.0 °F 87% 29.48 in 10.0 mi South 12.7 mph - 0.01 in   Overcast
8:52 PM 45.0 °F 38.2 °F 41.0 °F 86% 29.49 in 10.0 mi South 15.0 mph 19.6 mph 0.01 in   Overcast
9:39 PM 44.6 °F 37.8 °F 41.0 °F 87% 29.47 in 10.0 mi South 15.0 mph 20.7 mph 0.00 in   Overcast
9:52 PM 45.0 °F 38.5 °F 41.0 °F 86% 29.48 in 10.0 mi South 13.8 mph - 0.00 in   Overcast
10:52 PM 45.0 °F 38.9 °F 41.0 °F 86% 29.47 in 10.0 mi South 12.7 mph 21.9 mph 0.00 in   Overcast
11:11 PM 44.6 °F 38.8 °F 41.0 °F 87% 29.46 in 10.0 mi SSW 11.5 mph 21.9 mph N/A   Overcast
11:20 PM 44.6 °F 38.4 °F 41.0 °F 87% 29.46 in 10.0 mi SSW 12.7 mph - 0.00 in Rain Light Rain
11:32 PM 44.6 °F 38.1 °F 41.0 °F 87% 29.46 in 10.0 mi SSW 13.8 mph - 0.00 in   Mostly Cloudy
11:52 PM 44.1 °F 38.6 °F 41.0 °F 89% 29.46 in 10.0 mi South 10.4 mph - 0.00 in   Mostly Cloudy